Regional Weather Roundup
Issued by NWS

Home | Current Version | Previous Version | Graphics & Text | Print | Product List | Glossary On
Versions: 1 2 3 4 5 6 7 8 9 10 11 12 13 14 15 16 17 18 19 20 21 22 23 24 25 26 27 28 29 30 31 32 33 34 35 36 37 38 39 40 41 42 43 44 45 46 47 48 49 50
000
ASUS45 KCYS 182110
RWRWY

WYOMING REGIONAL WEATHER ROUNDUP
NATIONAL WEATHER SERVICE CHEYENNE WY
300 PM MDT THU SEP 18 2014

NOTE:  "FAIR" INDICATES FEW OR NO CLOUDS BELOW 12,000 FEET
WITH NO SIGNIFICANT WEATHER AND/OR OBSTRUCTIONS TO VISIBILITY.

WYZ001-182200-
YELLOWSTONE NATIONAL PARK

CITY           SKY/WX    TMP DP  RH WIND       PRES   REMARKS
LK YELLOWSTONE   N/A     59  49  69 VRB3      30.11F
W YELLOWSTONE  NOT AVBL

$$
WYZ002>013-054>058-071-098>099-182200-
NORTHERN WYOMING

CITY           SKY/WX    TMP DP  RH WIND       PRES   REMARKS
JACKSON        NOT AVBL
CODY             N/A    N/A N/A N/A MISG        N/A
GREYBULL       CLOUDY    79  46  31 NW9       29.81F
WORLAND        PTSUNNY   83  47  28 N16G24    29.82F
SHERIDAN       CLOUDY    78  51  38 NW24G30   29.85R
BUFFALO        PTSUNNY   83  43  24 N9        29.89F
GILLETTE       MOSUNNY   88  46  23 N25G32    29.82F
HULETT         FAIR      90  43  19 MISG      29.82
NEWCASTLE      FAIR      88  41  19 MISG      29.84

$$
WYZ014>020-022>026-101>103-182200-
CENTRAL WYOMING

CITY           SKY/WX    TMP DP  RH WIND       PRES   REMARKS
BIG PINEY      MOSUNNY   78  39  24 W14G22    30.03F
PINEDALE       PTCLDY    79  32  18 S8G21     30.03F
DUBOIS         MOCLDY    73  37  27 W9G21     30.01F
LANDER         SUNNY     88  32  13 SW18G32   29.88F
RIVERTON       SUNNY     85  41  21 CALM      29.90F
CASPER         SUNNY     91  30  11 SW10G21   29.90F
DOUGLAS        MOSUNNY   90  34  13 VRB3      29.89F

$$
WYZ021-027>030-104>119-182200-
SOUTHERN WYOMING

CITY           SKY/WX    TMP DP  RH WIND       PRES   REMARKS
EVANSTON       SUNNY    N/A N/A N/A SW22G30   30.05F
KEMMERER       PTCLDY    79  34  19 SW21G32   30.06F
FORT BRIDGER   MOCLDY    83  37  19 S7        30.06F
ROCK SPRINGS   MOSUNNY   81  33  17 VRB7G16   30.02F
DIXON          FAIR      84  33  16 SW9G16    30.07F
RAWLINS        SUNNY     84  27  12 SW16G23   30.05F
SARATOGA       FAIR      82  32  16 W10       30.08F
LARAMIE        SUNNY     81  29  15 MISG      30.09F
CHEYENNE       SUNNY     87  31  13 SW9       30.02F
TORRINGTON     MOSUNNY   85  53  33 SE8       29.86F
PINE BLUFFS    FAIR      88  32  13 S10G17    29.96F

$$


USA.gov is the U.S. government's official web portal to all federal, state and local government web resources and services.